#timestamp,LO_Frequency,Hit 
1500696015.4,286047002.2,N
1500696035.2,286047001.9,N
1500696055.1,286047003.7,N
1500696056.0,286047003.7,N
1500696075.8,286047002.1,N
1500696095.7,286047001.9,N
1500696115.5,286046999.9,N
1500696135.3,286047002.7,N
1500696155.2,286047001.8,N
1500696175.0,286047001.5,N
1500696175.9,286047001.5,N
1500696195.7,286047002.1,N
1500696215.6,286046999.7,N
1500696235.4,286047002.3,N
1500696255.3,286047001.8,N
1500696275.1,286047001.5,N
1500696276.0,286047001.5,N
1500696295.8,286047002.6,N
1500696315.7,286047002.6,N
1500696335.5,286047001.5,N
1500696355.4,286047001.6,N
1500696375.2,286047002.6,N
1500696395.0,286047001.3,N
1500696395.9,286047001.3,N
1500696415.8,286047004.2,N
1500696435.6,286047003.7,N
1500696455.4,286047003.9,N
1500696475.3,286047003.8,N
1500696495.1,286047003.7,N
1500696515.9,286047004.3,N
1500696535.7,286047004.0,N
1500696555.5,286047003.9,N
1500696575.4,286047001.6,N
1500696595.2,286047001.6,N
1500696615.0,286047002.2,N
1500696615.9,286047002.2,N
1500696635.8,286047002.2,N
1500696655.6,286047002.1,N
1500696675.5,286047001.6,N
1500696695.3,286047004.4,N
1500696715.1,286047001.4,N
1500696735.9,286047004.1,N
1500696755.7,286047003.5,N
1500696775.6,286047004.1,N
1500696795.4,286047004.2,N
1500696815.2,286047001.3,N
1500696835.1,286047004.1,N
1500696836.0,286047004.1,N
1500696855.8,286047003.8,N
1500696875.7,286047003.2,N
1500696895.5,286047004.4,N
1500696915.3,286047004.3,N
1500696935.2,286047004.1,N
1500696955.0,286047004.1,N
1500696955.9,286047004.1,N
1500696975.7,286047001.4,N
1500696995.6,286047001.9,N
1500697015.4,286047002.1,N
1500697035.3,286047003.4,N
1500697055.1,286047003.9,N
1500697056.0,286047003.9,N
1500697075.8,286047001.5,N
1500697095.7,286047003.8,N
1500697115.5,286047004.4,N
1500697135.4,286047003.9,N
1500697155.2,286047003.4,N
1500697175.0,286047006.0,N
1500697175.9,286047006.0,N
1500697195.8,286047005.9,N
1500697215.6,286047005.7,N
1500697235.4,286047005.1,N
1500697255.3,286047005.0,N
1500697275.1,286047005.1,N
1500697295.9,286047007.3,N
1500697315.7,286047004.8,N
1500697335.5,286047005.0,N
1500697355.4,286047004.7,N
1500697375.2,286047005.4,N
1500697395.0,286047004.8,N
1500697396.0,286047004.8,N
1500697415.8,286047005.1,N
1500697435.6,286047004.8,N
1500697455.5,286047006.9,N
1500697475.3,286047005.8,N
1500697495.1,286047005.4,N
1500697515.9,286047005.1,N
1500697535.7,286047005.7,N
1500697555.6,286047004.7,N
1500697575.4,286047005.1,N
1500697595.2,286047004.6,N
1500697615.1,286047006.2,N
1500697616.0,286047006.2,N
1500697635.8,286047006.3,N
1500697655.7,286047004.5,N
1500697675.5,286047005.7,N
1500697695.3,286047005.7,N
1500697715.2,286047005.3,N
1500697735.0,286047004.8,N
1500697735.9,286047004.8,N
1500697755.8,286047004.8,N
1500697775.6,286047007.6,N
1500697795.4,286047006.8,N
1500697815.3,286047006.2,N
1500697835.1,286047006.8,N
1500697855.8,286047006.9,N
1500697875.7,286047006.9,N
1500697895.5,286047006.4,N
1500697915.4,286047007.0,N
1500697935.2,286047006.6,N
1500697955.0,286047007.2,N
1500697955.9,286047007.2,N
1500697975.8,286047006.9,N
1500697995.6,286047007.5,N
1500698015.5,286047006.8,N
1500698035.3,286047006.6,N
1500698055.1,286047008.8,N
1500698075.9,286047009.0,N
1500698095.7,286047006.3,N
1500698115.5,286047006.5,N
1500698135.4,286047006.6,N
1500698155.2,286047008.8,N
1500698175.1,286047008.8,N
1500698176.0,286047008.8,N
1500698195.8,286047006.2,N
1500698215.6,286047006.4,N
1500698235.5,286047006.6,N
1500698255.3,286047006.7,N
1500698275.1,286047009.1,N
1500698295.9,286047006.7,N
1500698315.7,286047006.7,N
1500698335.6,286047007.0,N
1500698355.4,286047006.3,N
1500698375.2,286047006.2,N
1500698395.1,286047006.6,N
1500698396.0,286047006.6,N
1500698415.8,286047006.1,N
1500698435.7,286047006.3,N
1500698455.5,286047006.2,N
1500698475.3,286047006.1,N
1500698495.2,286047008.7,N
1500698515.0,286047009.1,N
1500698515.9,286047009.1,N
1500698535.8,286047008.5,N
1500698555.6,286047007.9,N
1500698575.4,286047010.2,N
1500698595.3,286047010.4,N
1500698615.1,286047010.8,N
1500698635.8,286047008.7,N
1500698655.7,286047006.1,N
1500698675.5,286047008.7,N
1500698695.4,286047008.7,N
1500698715.2,286047006.2,N
1500698735.0,286047009.2,N
1500698735.9,286047009.2,N
1500698755.8,286047008.0,N
1500698775.6,286047008.4,N
1500698795.5,286047008.4,N
1500698815.3,286047008.9,N
1500698835.1,286047009.1,N
1500698855.9,286047008.0,N
1500698875.7,286047008.0,N
1500698895.6,286047008.9,N
1500698915.4,286047006.1,N
1500698935.2,286047006.3,N
1500698955.1,286047009.2,N
1500698956.0,286047009.2,N
1500698975.8,286047008.7,N
1500698995.6,286047009.1,N
1500699015.5,286047006.5,N
1500699035.3,286047008.6,N
1500699055.2,286047006.1,N
1500699075.9,286047006.1,N
1500699095.7,286047009.2,N
1500699115.6,286047008.8,N
1500699135.4,286047006.1,N
1500699155.3,286047008.5,N
1500699175.1,286047009.1,N
1500699176.0,286047009.1,N
1500699195.8,286047006.6,N
1500699215.7,286047008.6,N
1500699235.5,286047009.2,N
1500699255.3,286047009.1,N
1500699275.2,286047006.1,N
1500699295.0,286047008.3,N
1500699295.9,286047008.3,N
1500699315.8,286047009.0,N
1500699335.6,286047008.9,N
1500699355.4,286047008.0,N
1500699375.3,286047006.7,N
1500699395.1,286047009.1,N
1500699415.9,286047006.1,N
1500699435.7,286047006.7,N
1500699455.5,286047006.1,N
1500699475.4,286047006.9,N
1500699495.2,286047006.7,N
1500699545.1,286047006.3,Y
1500699555.0,286047006.0,N
1500699555.9,286047006.0,N
1500699575.7,286047000.2,N
1500699595.6,286047000.3,N
